Location: Carson
(33.8314°N, 118.2820°W)
Time: 12:36:16
(UTC+00:00)

Cosmos 1745 Rocket - Pass Details

Date: 23 November 2020
Orbit: 952 x 999 km, 83.0° (Epoch: 22 January)

Event Time Altitude Azimuth Distance (km) Brightness Sun altitude
Rises 12:25:40 0° 188° (S) 3,643 7.0 -26.2°
Reaches altitude 10° 12:28:09 10° 189° (S) 2,706 6.3 -25.7°
Maximum altitude 12:34:22 79° 276° (W) 1,003 3.8 -24.4°
Drops below altitude 10° 12:40:42 10° 3° (N) 2,754 6.3 -23.1°
Sets 12:43:15 0° 5° (N) 3,712 7.0 -22.6°
